Location: Castle
(40.7167°S, 175.9500°E)
Time: 02:24:36
(UTC+00:00)

Cosmos 2150 Rocket - Pass Details

Date: 04 August 2024
Orbit: 747 x 805 km, 74.0° (Epoch: 07 September)

Event Time Altitude Azimuth Distance (km) Brightness Sun altitude
Rises 18:17:49 0° 343° (NNW) 3,193 7.2 -11.8°
Reaches altitude 10° 18:20:10 10° 343° (NNW) 2,272 6.4 -11.4°
Maximum altitude 18:25:19 88° 73° (ENE) 763 4.0 -10.4°
Drops below altitude 10° 18:30:33 10° 160° (SSE) 2,301 6.6 -9.4°
Sets 18:32:56 0° 160° (SSE) 3,236 7.3 -9.0°
